TimePDT,TemperatureF,Dew PointF,Humidity,Sea Level PressureIn,VisibilityMPH,Wind Direction,Wind SpeedMPH,Gust SpeedMPH,PrecipitationIn,Events,Conditions,WindDirDegrees,DateUTC
12:54 AM,-9999,-9999,N/A,-9999,-9999.0,NNW,3.5,-,N/A,,Clear,340,2013-08-29 07:54:00
1:54 AM,-9999,-9999,N/A,-9999,-9999.0,NNW,3.5,-,N/A,,Clear,340,2013-08-29 08:54:00
2:54 AM,-9999,-9999,N/A,-9999,-9999.0,Calm,Calm,-,N/A,,Clear,0,2013-08-29 09:54:00
3:54 AM,-9999,-9999,N/A,-9999,-9999.0,North,3.5,-,N/A,,Clear,360,2013-08-29 10:54:00
4:54 AM,-9999,-9999,N/A,-9999,-9999.0,Calm,Calm,-,N/A,,Clear,0,2013-08-29 11:54:00
5:54 AM,62.2,58.8,89,29.89,7.0,Calm,Calm,-,N/A,,Clear,0,2013-08-29 12:54:00
6:54 AM,62.2,59.0,89,29.91,7.0,Calm,Calm,-,N/A,,Clear,0,2013-08-29 13:54:00
7:54 AM,64.9,60.1,84,29.92,7.0,North,3.5,-,N/A,,Clear,360,2013-08-29 14:54:00
8:54 AM,68.2,59.9,75,29.92,7.0,Calm,Calm,-,N/A,,Clear,0,2013-08-29 15:54:00
9:54 AM,68.9,61.2,76,29.94,7.0,Variable,4.6,-,N/A,,Clear,0,2013-08-29 16:54:00
10:54 AM,70.3,62.1,75,29.94,7.0,West,9.2,-,N/A,,Clear,280,2013-08-29 17:54:00
11:54 AM,73.6,62.1,67,29.92,7.0,West,9.2,-,N/A,,Partly Cloudy,270,2013-08-29 18:54:00
12:54 PM,71.2,59.9,67,29.92,7.0,West,10.4,-,N/A,,Partly Cloudy,260,2013-08-29 19:54:00
1:54 PM,71.2,59.9,67,29.92,7.0,West,10.4,-,N/A,,Scattered Clouds,270,2013-08-29 20:54:00
2:54 PM,73.9,61.5,65,29.89,7.0,West,10.4,-,N/A,,Scattered Clouds,280,2013-08-29 21:54:00
3:54 PM,75.0,63.0,66,29.88,7.0,West,6.9,-,N/A,,Scattered Clouds,260,2013-08-29 22:54:00
4:54 PM,75.2,63.0,66,29.87,7.0,West,5.8,-,N/A,,Scattered Clouds,270,2013-08-29 23:54:00
5:54 PM,74.3,63.0,68,29.87,7.0,West,5.8,-,N/A,,Scattered Clouds,260,2013-08-30 00:54:00
6:54 PM,70.0,60.8,73,29.87,7.0,WNW,5.8,-,N/A,,Scattered Clouds,300,2013-08-30 01:54:00
7:54 PM,68.0,60.3,76,29.86,7.0,WNW,4.6,-,N/A,,Scattered Clouds,300,2013-08-30 02:54:00
8:54 PM,68.0,60.3,76,29.86,7.0,NNW,3.5,-,N/A,,Scattered Clouds,330,2013-08-30 03:54:00
9:54 PM,67.1,60.8,80,29.91,7.0,Variable,5.8,-,N/A,,Partly Cloudy,0,2013-08-30 04:54:00
10:54 PM,66.9,61.2,82,29.91,7.0,NW,4.6,-,N/A,,Partly Cloudy,320,2013-08-30 05:54:00
11:54 PM,-9999,-9999,N/A,-9999,-9999.0,WNW,3.5,-,N/A,,Clear,300,2013-08-30 06:54:00